Location: Newark
(41.0400°S, 62.7845°W)
Time: 16:31:41
(UTC+00:00)

Vanguard 2 Rocket - Pass Details

Date: 05 December 2021
Orbit: 553 x 3325 km, 32.9° (Epoch: 23 January)

Event Time Altitude Azimuth Distance (km) Brightness Sun altitude
Rises 07:00:07 0° 327° (NNW) 7,182 - -14.3°
Reaches altitude 10° 07:05:36 10° 335° (NNW) 6,263 - -13.6°
Exits shadow 07:06:21 11° 336° (NNW) 6,141 10.5 -13.5°
Maximum altitude 07:22:25 35° 31° (NNE) 4,248 10.2 -11.3°
Drops below altitude 10° 07:35:54 10° 88° (E) 5,076 11.4 -9.5°
Sets 07:39:42 0° 96° (E) 5,733 12.0 -8.9°
